Showing default

ION SCV-019, 68435

Orbit data source: Space-Track

ION SCV-019, 68435 is a payload satellite owned by D-ORBIT (IT) in SSO that was launched on Mon, 30 Mar 2026 UTC via an FALCON 9 launch vehicle from the Air Force Western Test Range (AFWTR). Payload-class satellites include a variety of spacecraft equipped with specific instruments for various scientific and technological missions. These include communications satellites like Starlink; space stations such as the ISS; scientific satellites like the Hubble; Earth observation satellites from companies like Planet Labs, Umbra, and HawkEye 360; GPS; miniature CubeSats for education and research; and military/defense satellites.

Loading next visibility...
Identifier
68435, 2026-067V
Orbit
SSO
Country
Flag of ITIT
Related business
Manufacturer
D-ORBIT
Mission
Operational spacecraft
Bus & Motor
ION-SC, PM200
Mass
220 kg wet, 150 kg dry
Launch date (UTC)
2026-03-30 (3 months ago)
Launch vehicle
FALCON 9
Launch site
Air Force Western Test Range (AFWTR)
Object type
Payload
Rocket body
Debris
Shape & HBR
Unknown shape, 1.1 m
Radar Cross Section
Large (>1 m²)

Expand to show TLE details & history
Last TLE update: 1 day ago

TLE from 1 day ago
0 ION SCV-019
1 68435U 26067V   26171.42441288  .00003009  00000-0  14686-3 0  9997
2 68435  97.4548 129.8752 0007692  22.0863 338.0702 15.19029729 12432
Epoch: 2026-06-20T10:11Z
TLE epoch observation values (Epoch: 2026-06-20T10:11:09.272Z)
Latitude
0.00001°
Longitude
68.44733°
Altitude
506.945 km
Speed
7.613 km/s
True Right ascension
08h 39m 30s
True Declination
0° 00' 00"
Sunlit
Object was in daylight at epoch
Visualization orbit readout
Latitude
Unknown
Longitude
Unknown
Altitude
Unknown
Speed
Unknown
Apparent Right ascension
Unknown
Apparent Declination
Unknown
Sunlit
N/A
Visualization observer readout
Local Sidereal Time
09:00:34
Azimuth
Unknown
Elevation
Unknown
Doppler factor
Unknown
Orbital elements
Apogee altitude
511.036 km
Perigee altitude
500.446 km
Semi-major axis
6,883.878 km
Eccentricity
0.00077
Inclination
97.4548°
RAAN
129.8752°
Arg. of periapsis
22.0863°
True anomaly
338.03725°
Mean anomaly
338.0702°
Eccentric anomaly
338.05373°
Mean motion
3.80009 °/min
Orbital period
94.73 mins
BSTAR
0.00014686
Loading maneuver chart data...
Computing Atmospheric mass density...
Loading historical data...
Loading historical data...
Loading historical data...
Loading historical data...
Loading historical data...
Loading historical data...
Loading historical data...

Documentation

Showing up to 5 results
|